Location: Nians�bougou
(13.2321°N, 4.9818°W)
Time: 14:16:11
(UTC+00:00)

GPS 2-14 Rocket1 - Pass Details

Date: 18 February 2020
Orbit: 476 x 542 km, 20.7° (Epoch: 04 April)

Event Time Altitude Azimuth Distance (km) Brightness Sun altitude
Exits shadow 04:53:00 37° 129° (SE) 807 4.0 -26.9°
Drops below altitude 10° 04:56:06 10° 88° (E) 1,755 6.4 -26.2°
Sets 04:58:28 0° 81° (E) 2,654 7.5 -25.6°
